Location: Cantaing
(50.1487°N, 3.1675°E)
Time: 22:38:16
(UTC+00:00)

Cosmos 2082 Rocket - Pass Details

Date: 17 April 2026
Orbit: 831 x 853 km, 71.0° (Epoch: 19 May)

Event Time Altitude Azimuth Distance (km) Brightness Sun altitude
Exits shadow 02:13:02 45° 212° (SSW) 1,144 2.4 -21.6°
Maximum altitude 02:14:53 87° 297° (WNW) 861 2.1 -21.4°
Drops below altitude 10° 02:20:38 10° 29° (NNE) 2,494 5.8 -20.8°
Sets 02:23:06 0° 30° (NNE) 3,433 6.8 -20.5°
